Home > Weather > Seattle > Past weeks

Flag for USA Past 2 weeks in Seattle, Washington, USA

Now
69 °F

Passing clouds.


Feels Like: 69 °F
Forecast: 51 / 73 °F
Wind: 8 mph from NW

Location: Seattle Boeing Field


UV Index: 5 (Moderate)

Visibility: 10 mi


Pressure: 29.83 "Hg

Humidity: 45%

Dew point: 47 °F

Location of Seattle

Historic Weather in Seattle

°F

Past Weeks' High & Low Weather Summary

 TemperatureHumidityPressure
High80 °F (May 22, 3:53 PM)100% (May 12, 1:53 AM)30.24 "Hg (May 12, 1:53 AM)
Low44 °F (May 12, 1:53 AM)38% (May 23, 3:53 PM)29.58 "Hg (May 16, 5:53 AM)
Average57 °F74%30.01 "Hg
* Reported May 10 4:53 PM — May 25 4:53 PM, Seattle, Weather by CustomWeather, © 2014

Note: Actual official high and low records may vary slightly from our data, if they occured in-between our weather recording intervals... More about our weather records

Advertising

Historic Weather Conditions — Data for Previous 24 hours

 ConditionsComfort  
Time TempWeatherWind HumidityBarometerVisibility
4:53 PM
May 25
69 °FPassing clouds.8 mph45%29.83 "Hg10 mi
3:53 PM67 °FPassing clouds.12 mph51%29.85 "Hg10 mi
2:53 PM67 °FSunny.9 mph49%29.86 "Hg10 mi
1:53 PM65 °FPassing clouds.9 mph52%29.88 "Hg10 mi
12:53 PM64 °FPassing clouds.6 mph58%29.89 "Hg10 mi
11:53 AM62 °FScattered clouds.7 mph60%29.90 "Hg10 mi
10:53 AM60 °FSunny.3 mph69%29.90 "Hg10 mi
9:53 AM59 °FScattered clouds.6 mph64%29.91 "Hg8 mi
8:53 AM54 °FScattered clouds.3 mph83%29.92 "Hg10 mi
7:53 AM50 °FPartly sunny.3 mph93%29.92 "Hg10 mi
6:53 AM49 °FPartly sunny.7 mph97%29.93 "Hg10 mi
5:53 AM48 °FOvercast.5 mph93%29.92 "Hg10 mi
4:53 AM49 °FClear.5 mph90%29.92 "Hg10 mi
3:53 AM49 °FClear.No wind90%29.92 "Hg10 mi
2:53 AM50 °FClear.No wind86%29.92 "Hg10 mi
1:53 AM52 °FClear.No wind83%29.91 "Hg10 mi
12:53 AM54 °FClear.No wind77%29.91 "Hg10 mi
11:53 PM
May 24
55 °FClear.No wind69%29.92 "Hg10 mi
10:53 PM56 °FClear.No wind67%29.93 "Hg10 mi
9:53 PM59 °FClear.No wind56%29.94 "Hg10 mi
8:53 PM59 °FPassing clouds.5 mph49%29.93 "Hg10 mi
7:53 PM61 °FScattered clouds.6 mph50%29.94 "Hg10 mi
6:53 PM63 °FScattered clouds.3 mph50%29.94 "Hg10 mi
Weather by CustomWeather, © 2014

See weather overview